GFSGL_925_thetae_000.txt.gz
Theta_e
328 328 329 330 330 330 326 325 325 326 326 326 327 328 329 329 329 328 329 330 331 331 329 329 329 330 329 329 329 328 327 328 328 329 329 328 328 328 327 326 325 325 321
326 326 328 330 330 329 327 326 326 327 326 327 328 329 329 329 328 327 328 327 328 328 329 329 330 329 329 328 328 328 328 328 328 328 328 328 327 327 328 326 324 321 317
325 326 329 330 329 330 327 327 328 327 328 327 328 329 329 329 327 325 327 327 327 327 329 330 330 329 329 328 328 328 328 328 327 327 328 328 328 328 328 326 326 325 323
325 325 330 329 328 329 327 326 327 328 328 328 328 328 329 329 328 327 326 327 328 329 328 329 330 329 328 328 328 328 328 328 327 328 328 329 329 329 329 326 325 322 320
323 327 329 329 328 329 325 326 327 327 328 329 327 328 329 328 328 328 327 326 327 329 329 329 330 330 329 329 328 328 327 327 327 327 327 329 328 327 325 321 323 321 322
323 326 327 328 329 329 324 327 328 328 328 329 327 328 330 330 330 327 326 325 328 328 329 329 329 329 329 328 327 326 327 328 328 327 327 326 327 324 321 320 317 320 323
322 324 325 325 328 329 325 328 328 326 327 329 328 327 330 329 329 328 326 326 328 328 329 329 328 327 327 327 328 328 327 329 326 325 325 325 323 320 319 321 322 323 323
322 322 323 322 326 326 327 327 325 324 324 327 328 329 328 328 328 329 328 327 327 328 328 329 329 328 327 328 329 329 326 327 327 325 322 321 322 322 322 322 322 323 323
322 321 321 321 328 325 327 328 326 323 322 326 328 329 329 328 329 329 328 328 328 328 328 328 329 329 328 329 327 324 326 327 326 328 328 326 328 327 326 326 328 328 324
322 321 320 321 329 328 325 326 324 321 321 322 322 326 327 329 330 329 328 328 329 329 328 327 325 325 326 327 322 323 321 320 319 318 319 317 316 317 318 315 313 316 313
321 322 320 320 326 329 326 326 326 323 321 320 321 322 322 326 326 327 325 326 326 325 321 321 322 322 321 321 319 320 319 318 313 315 317 318 318 318 318 318 316 316 316
319 320 321 320 323 327 328 326 325 327 325 320 319 321 322 322 324 325 324 323 322 318 320 319 317 317 319 319 319 319 319 319 318 318 316 320 322 323 320 317 317 315 312
319 319 320 321 323 325 328 327 327 325 326 328 322 319 318 319 320 320 322 324 322 322 322 322 321 321 319 319 322 321 321 319 314 319 322 320 319 317 316 314 308 307 306
319 320 318 320 323 325 328 328 328 329 329 328 327 324 321 319 314 314 314 316 322 320 318 319 320 320 317 320 321 319 317 312 315 320 319 317 316 314 309 307 307 305 304
320 320 318 319 325 328 329 329 329 329 327 329 328 326 322 322 321 317 311 313 316 317 317 314 311 311 314 317 317 310 306 308 318 317 315 312 308 306 306 306 304 304 304
321 320 318 321 327 328 329 328 328 327 325 326 327 325 324 322 321 320 314 310 312 314 315 311 308 305 309 313 310 307 313 311 317 315 310 306 306 306 305 303 304 304 303
323 322 319 322 326 327 327 326 325 326 325 323 323 325 324 322 322 321 319 308 310 314 315 311 308 305 305 305 304 308 314 316 314 310 306 306 305 304 303 303 303 302 302
324 323 319 322 324 325 326 326 325 324 324 324 324 323 324 323 322 321 320 308 311 313 313 312 309 309 307 305 305 308 314 313 309 307 306 305 303 303 303 302 302 301 300
325 323 320 320 323 324 325 325 325 324 324 324 322 322 319 317 321 322 321 314 308 314 316 315 315 315 314 313 314 314 315 310 308 307 304 303 303 302 302 301 299 298 297
325 324 322 319 322 322 323 323 324 323 322 322 321 322 318 316 317 318 318 315 306 309 313 316 317 317 316 318 318 314 311 308 307 303 302 302 302 301 300 299 297 296 296
326 325 323 321 320 321 321 322 321 322 321 320 322 322 321 318 317 317 318 315 310 306 308 311 312 313 313 315 315 311 309 306 303 302 302 302 301 300 299 297 296 295 295
328 324 323 323 322 320 320 321 321 320 320 320 321 321 320 318 317 317 317 317 317 313 308 307 310 312 314 316 313 309 307 303 301 301 301 300 299 299 297 296 294 294 294
329 326 323 323 322 323 322 321 320 320 319 319 319 319 318 316 315 316 316 315 315 314 312 311 312 313 314 312 309 308 305 301 301 300 298 298 298 297 296 294 293 292 290
330 328 325 324 323 322 321 322 322 321 320 319 319 318 318 318 315 314 314 314 314 315 314 313 313 312 311 309 305 304 301 300 300 299 299 298 298 296 294 293 292 290 289
330 329 327 326 324 323 323 322 322 322 321 320 319 318 318 318 316 313 313 312 312 313 313 312 311 311 310 308 303 301 300 300 299 298 298 297 297 295 293 291 290 289 288
329 330 330 328 326 325 324 324 324 324 324 324 323 322 319 317 314 313 312 311 311 311 311 310 309 308 306 304 301 299 299 298 298 298 298 296 295 293 291 290 289 288 286

GFSGL_925_thetae_003.txt.gz
Theta_e
328 327 328 329 328 327 325 323 323 323 323 324 324 325 327 327 329 329 330 330 329 329 329 330 330 329 329 329 329 328 328 328 328 329 329 329 329 329 328 326 325 324 324
327 328 328 329 328 326 325 323 324 324 324 324 326 328 328 328 328 328 329 329 329 328 328 329 329 329 328 328 328 328 328 328 328 328 328 327 328 327 326 327 324 323 320
326 326 328 329 328 327 326 325 326 324 326 326 327 328 328 328 328 327 326 328 328 329 328 329 329 329 328 328 327 327 328 328 327 328 328 328 327 327 326 325 324 321 320
324 327 328 328 328 327 326 327 326 326 326 327 327 328 328 327 326 326 326 326 326 327 328 329 329 328 329 328 328 328 328 327 327 327 327 327 327 327 328 325 325 323 319
323 326 328 327 327 326 325 325 326 327 326 326 328 328 328 327 326 326 326 327 328 327 328 330 329 328 329 328 327 328 328 327 327 328 328 328 327 327 327 325 323 323 321
322 327 328 327 327 324 325 326 325 326 327 326 327 327 328 327 327 326 326 326 328 327 328 327 329 328 328 328 328 328 327 327 327 327 327 327 327 328 326 323 320 321 320
322 326 325 326 327 324 326 326 326 327 327 326 326 327 329 329 327 326 325 327 328 329 329 329 329 329 328 327 326 327 327 325 325 326 327 327 328 327 325 320 318 317 321
321 325 325 325 326 326 326 327 326 324 327 326 325 328 328 329 329 326 325 327 328 328 329 329 328 328 327 327 327 327 328 328 328 328 326 323 322 321 320 319 321 322 322
321 323 323 322 326 326 325 326 324 323 325 326 326 327 328 327 327 327 326 325 327 327 328 327 326 326 327 327 328 328 325 326 328 327 326 324 323 323 323 323 323 324 325
321 321 321 320 324 324 325 326 324 322 324 326 326 327 327 328 328 329 327 327 328 327 328 328 327 326 327 328 328 323 324 326 327 327 328 327 327 328 329 328 327 326 315
321 320 320 321 326 325 324 326 324 321 321 322 324 324 326 328 328 328 328 328 327 327 327 327 327 327 327 327 326 321 320 318 316 315 315 313 313 313 315 315 314 314 316
320 320 319 320 326 326 324 326 322 320 319 319 320 319 321 325 326 328 328 327 328 327 326 324 322 323 324 324 321 319 318 316 315 318 319 319 319 319 318 318 318 317 315
320 320 320 320 320 327 325 324 323 321 320 319 319 319 319 321 324 325 324 324 323 322 319 319 320 321 320 319 319 318 319 318 317 318 320 322 321 318 315 313 311 310 307
318 319 320 319 318 323 328 325 325 326 322 320 319 318 319 319 318 320 322 322 321 319 318 319 318 317 317 318 320 320 319 318 317 318 320 318 315 312 311 310 307 305 306
317 318 319 319 318 321 326 327 325 326 325 326 325 322 319 317 318 320 319 319 321 320 319 319 320 318 318 317 318 318 315 313 316 320 320 317 313 309 308 305 305 305 304
316 316 316 318 320 322 325 326 326 326 326 325 322 325 327 324 322 318 315 316 316 318 318 314 314 317 316 316 315 310 307 309 316 320 317 314 309 308 306 305 304 305 302
318 317 316 318 321 323 324 325 325 326 327 328 326 326 326 325 323 321 319 313 311 312 316 315 313 313 313 313 315 313 309 310 313 317 314 310 308 306 305 304 303 302 300
319 319 318 318 322 323 324 324 325 324 324 325 325 325 324 324 323 322 320 319 308 308 311 313 313 311 310 307 310 311 309 312 314 313 310 307 306 304 303 303 302 301 299
320 319 318 319 321 322 323 324 324 323 323 324 322 322 321 322 322 321 320 320 315 308 308 312 314 313 310 307 305 307 307 313 314 311 307 305 304 303 303 302 301 300 298
321 321 319 319 321 323 323 323 322 322 321 322 322 322 322 319 319 319 319 318 316 315 307 309 312 314 313 311 306 304 305 313 311 307 305 304 303 303 302 300 298 297 296
322 321 320 319 321 321 322 322 322 322 321 320 322 321 322 322 318 317 316 318 318 317 315 308 309 313 313 312 313 312 311 311 309 306 304 303 302 302 300 298 297 296 296
323 322 319 319 320 321 321 321 322 322 322 321 321 321 321 321 321 320 318 318 318 319 319 317 310 309 312 315 316 315 313 310 307 306 303 302 301 299 298 297 295 295 295
324 323 321 320 319 320 320 320 321 321 321 321 321 320 320 321 319 319 320 318 317 316 318 317 315 311 309 311 314 314 314 312 308 303 302 301 299 298 298 296 295 294 290
325 324 322 322 321 320 319 319 319 320 319 319 320 320 320 319 320 320 319 318 316 316 315 315 315 312 309 309 311 311 311 308 306 303 301 299 299 298 296 295 293 290 288
326 325 323 322 321 321 321 320 320 319 319 319 319 320 320 321 319 318 319 317 315 314 313 313 313 312 310 309 310 309 308 308 307 302 300 300 298 297 296 294 291 288 287
328 327 326 324 323 322 321 321 321 321 320 320 320 320 320 319 319 320 319 317 314 312 312 312 311 311 309 308 308 305 303 302 301 300 298 299 300 297 296 292 289 287 286

GFSGL_925_thetae_006.txt.gz
Theta_e
327 327 327 328 327 324 324 322 323 323 323 323 323 323 324 327 328 327 328 327 327 328 330 330 329 329 329 329 329 329 329 329 329 329 328 327 328 327 327 326 325 324 323
327 326 327 328 327 326 324 323 324 323 323 323 325 325 326 328 328 328 328 327 327 327 329 329 329 328 327 328 329 329 329 329 329 328 328 328 327 327 326 325 324 323 322
326 326 327 328 327 326 324 323 324 324 324 325 327 327 327 327 328 328 328 327 327 328 328 328 328 328 327 328 328 328 328 328 328 328 327 327 326 325 325 324 322 320 316
325 325 327 328 327 326 325 326 325 325 325 327 327 327 327 327 327 325 327 326 327 327 328 328 328 327 327 328 328 328 328 327 327 327 326 325 326 326 325 324 323 322 320
323 327 328 327 327 325 326 325 325 325 326 327 328 327 327 326 326 326 326 326 326 328 329 329 328 328 327 328 328 327 327 327 327 327 326 326 326 326 326 325 324 320 320
322 326 327 326 326 325 325 325 326 325 326 327 328 327 327 326 325 325 325 326 326 327 329 329 329 328 328 327 328 327 328 327 326 327 326 325 326 326 325 323 322 321 319
322 326 327 326 325 325 325 325 326 326 326 326 327 327 327 327 327 326 326 326 326 327 328 328 329 328 327 327 327 327 326 326 327 327 327 327 326 327 326 320 318 316 321
322 325 325 326 324 325 325 325 325 326 326 325 326 328 328 328 327 325 327 327 326 326 327 328 328 327 327 327 327 327 326 325 325 325 326 326 326 326 325 317 317 319 322
321 323 324 324 326 325 326 326 323 326 325 324 325 328 328 328 327 325 327 328 328 327 328 329 328 328 327 326 327 327 327 327 328 327 327 323 322 322 321 320 321 321 323
321 321 324 322 326 324 326 326 322 323 325 325 325 327 327 327 326 326 325 327 328 328 328 327 327 327 326 327 328 324 322 326 327 327 326 325 328 325 322 322 323 323 319
322 321 322 321 325 325 324 325 323 321 324 323 324 325 327 327 328 327 326 327 327 328 327 326 326 326 327 327 327 322 323 324 325 326 326 326 326 327 325 323 326 323 314
321 321 320 320 324 323 323 324 323 321 323 322 321 321 323 327 328 327 327 327 326 327 327 327 327 326 326 327 326 320 317 315 314 318 315 312 313 313 314 314 315 317 316
321 320 320 319 322 324 324 325 321 320 320 319 319 319 322 324 327 327 327 327 327 327 327 327 326 326 326 325 324 320 318 314 316 317 317 317 317 316 315 314 311 309 308
320 320 319 318 320 325 324 324 323 319 318 318 318 318 319 322 323 325 325 326 326 324 322 320 320 320 320 320 319 318 318 317 316 317 319 319 315 312 311 310 309 308 308
320 319 319 319 318 323 325 324 323 322 322 319 319 319 319 319 323 324 322 323 323 323 320 318 316 316 317 317 318 318 317 316 317 318 318 316 311 309 308 309 308 307 304
317 318 318 318 317 318 323 324 324 324 324 324 324 322 322 320 320 322 322 322 321 320 317 318 319 317 316 316 316 316 315 315 316 318 317 315 312 309 307 306 306 306 303
317 316 316 317 318 318 320 323 323 324 324 324 325 325 324 323 323 319 319 318 316 319 319 318 317 318 318 317 316 316 317 315 315 317 317 316 313 308 305 304 304 302 300
318 318 316 316 317 319 320 321 322 323 323 324 325 326 325 325 325 325 322 316 310 310 313 315 317 316 314 317 316 315 315 311 310 315 315 314 310 307 304 303 302 301 298
317 316 317 316 317 319 320 321 321 322 323 323 324 325 326 325 325 325 323 320 317 312 310 310 311 313 314 313 314 314 314 312 310 312 314 312 308 305 303 303 302 300 298
318 318 317 317 318 320 321 321 321 321 321 322 323 324 325 322 321 321 321 321 319 317 317 314 310 309 311 312 311 309 309 310 310 311 312 309 306 304 303 302 300 298 297
319 318 318 318 319 320 321 321 321 321 320 320 322 322 323 322 320 320 321 321 320 319 319 319 318 313 308 310 311 308 305 306 308 311 310 306 304 303 302 301 299 297 296
320 318 317 319 319 320 321 321 321 321 320 320 320 321 322 321 320 319 318 320 321 319 318 320 320 319 318 310 309 312 308 304 305 309 308 305 303 302 300 298 297 296 296
320 319 318 319 319 320 320 321 321 321 320 320 320 319 320 320 320 320 320 320 318 318 318 318 318 318 318 317 312 310 312 311 310 308 307 303 301 300 299 297 296 296 295
322 320 319 318 318 319 320 320 320 321 320 320 320 320 320 320 320 320 320 320 320 320 320 318 317 316 316 316 314 311 311 313 311 307 306 302 300 300 299 298 297 297 295
323 322 320 319 318 318 319 319 319 320 320 320 320 320 320 320 320 320 320 320 320 320 319 317 316 314 313 312 312 310 309 311 310 307 302 301 300 299 298 298 298 295 293
324 322 321 321 320 319 319 318 319 319 319 319 319 319 319 319 320 320 320 320 318 318 316 315 314 313 312 311 310 309 308 309 307 305 302 302 300 299 298 300 298 294 290

GFSGL_925_thetae_009.txt.gz
Theta_e
328 330 329 329 327 327 326 326 325 326 326 326 326 327 328 330 328 328 330 329 329 329 329 329 329 330 331 330 331 331 329 329 329 328 328 327 326 326 326 325 326 325 324
329 329 329 330 328 327 326 326 325 325 325 326 327 327 328 329 328 330 328 327 328 328 329 328 328 329 329 331 330 331 330 328 328 328 327 327 327 327 326 325 325 324 323
328 328 331 330 329 329 326 326 326 326 326 326 328 328 329 329 330 329 328 327 327 328 329 328 328 328 329 330 330 329 329 328 328 328 328 327 326 326 325 324 324 323 321
327 328 331 330 329 328 326 326 326 327 327 328 329 329 329 329 328 329 328 327 329 328 328 328 328 328 330 329 329 329 329 328 327 327 327 325 324 325 323 320 321 320 317
326 329 330 330 328 327 328 327 327 327 328 329 329 329 329 328 327 327 327 328 329 328 328 328 328 328 328 328 328 328 328 328 327 326 326 324 323 324 323 321 323 322 320
326 329 328 329 327 328 327 327 327 328 329 330 329 329 329 327 325 325 326 328 329 330 329 328 328 328 328 328 328 327 327 327 326 326 325 325 325 327 326 325 322 322 323
325 329 328 328 327 327 327 327 328 328 329 329 329 329 330 326 325 326 325 328 327 328 328 328 327 327 328 327 327 327 327 327 326 328 328 327 327 327 326 325 322 323 324
325 328 328 328 327 327 327 328 328 328 329 329 329 330 329 327 326 326 326 326 327 328 328 328 328 329 327 328 328 328 327 327 327 327 327 327 328 327 325 322 323 326 324
324 327 327 328 327 327 328 328 326 327 327 326 327 329 329 327 326 327 328 326 327 328 329 328 328 328 327 327 328 327 327 326 326 326 326 325 326 327 321 320 321 325 326
324 325 326 327 327 328 329 326 324 327 326 325 328 329 329 326 326 327 329 328 327 328 328 327 327 327 326 327 329 329 328 326 327 326 323 322 322 324 322 324 325 326 327
324 323 325 326 328 328 329 326 323 325 325 326 325 326 328 326 326 325 327 327 328 329 328 328 328 327 326 327 323 325 327 326 327 326 325 325 325 322 321 321 324 327 325
324 323 324 326 327 327 328 327 324 326 325 324 324 325 326 327 327 326 326 327 327 327 328 328 327 326 327 326 323 319 323 325 323 323 323 323 323 321 322 323 325 322 318
324 323 323 324 326 327 327 327 325 325 324 323 324 324 324 325 327 327 327 327 327 327 327 326 326 326 326 326 325 319 315 317 322 323 321 318 318 316 314 314 314 314 313
324 325 323 322 325 326 326 326 325 323 323 321 322 324 323 323 326 326 327 326 326 326 326 326 326 326 326 325 324 321 319 318 320 321 321 319 315 315 314 312 310 307 305
325 324 323 322 323 326 327 326 326 325 324 323 321 321 324 323 323 324 325 325 325 324 323 321 319 319 320 319 318 318 317 318 320 321 320 317 315 313 312 311 310 310 309
325 324 323 321 321 325 327 324 325 325 322 322 323 322 320 321 322 323 321 322 323 323 320 319 319 319 319 318 318 317 317 318 320 319 318 316 315 313 312 311 311 311 309
324 324 323 322 321 322 326 327 326 323 323 321 321 321 321 321 318 321 323 322 322 321 321 320 320 320 318 317 316 316 317 319 320 319 318 317 316 314 310 311 311 309 306
323 322 323 322 321 321 322 323 324 326 326 326 324 324 324 321 321 320 319 319 316 316 321 322 321 321 321 320 318 317 316 316 318 318 317 316 315 313 312 311 309 307 303
323 321 322 322 321 321 321 322 322 323 325 326 326 323 324 324 324 324 323 317 317 316 317 318 318 318 318 318 317 318 317 316 316 317 316 315 314 313 312 311 308 304 301
322 321 321 322 322 321 321 322 322 322 323 324 325 324 321 323 321 320 322 318 321 319 318 316 315 314 315 315 315 315 315 315 314 314 315 314 313 312 311 309 305 299 298
323 320 319 321 322 322 321 322 323 323 323 323 323 323 322 322 325 324 321 320 321 322 321 319 318 316 314 312 312 312 313 314 314 314 313 312 311 311 309 306 301 299 297
323 322 319 321 322 322 323 323 323 323 323 323 323 322 322 322 324 323 322 321 320 321 321 320 320 319 317 316 313 311 311 312 312 312 312 311 309 308 304 301 300 297 296
323 323 320 321 322 323 323 324 324 323 323 323 323 323 318 318 322 322 322 321 320 319 320 320 320 319 318 317 316 315 312 311 311 311 310 309 307 305 303 301 298 296 296
324 324 322 322 322 323 323 324 324 324 324 324 324 323 322 319 320 321 321 321 320 319 318 318 318 318 317 317 316 316 315 313 311 309 308 307 305 303 301 299 297 297 296
324 324 323 323 323 322 323 324 324 325 324 324 324 324 324 322 321 321 321 321 320 319 319 318 318 318 317 316 316 315 314 313 312 309 307 306 302 301 299 298 297 298 299
325 325 325 323 323 322 323 324 324 324 325 324 324 324 324 324 323 322 321 320 319 319 318 318 318 318 317 316 315 313 313 312 310 309 306 303 301 299 298 297 299 298 298

GFSGL_925_thetae_012.txt.gz
Theta_e
332 332 332 332 332 331 330 328 329 329 328 328 328 329 329 330 332 332 331 331 331 331 329 332 332 331 331 331 332 330 328 329 330 328 325 323 323 324 325 324 321 323 325
331 331 332 331 332 331 330 329 328 328 328 327 328 328 328 331 331 330 329 329 330 331 331 330 329 331 332 332 331 331 330 328 327 327 325 327 325 325 324 323 322 323 323
330 331 332 332 331 331 330 330 328 327 327 326 328 328 330 331 331 331 330 329 329 330 328 328 329 329 333 333 331 329 328 328 327 326 326 326 326 325 326 325 324 323 323
329 330 332 331 331 331 330 329 328 327 327 329 329 330 330 330 331 330 330 331 331 331 329 329 328 328 332 331 331 330 328 328 328 326 326 325 325 325 325 324 322 321 320
328 330 331 333 332 330 330 329 328 328 329 330 330 330 330 330 330 330 330 332 332 331 329 330 331 331 332 332 330 330 329 329 328 326 325 325 324 324 323 320 317 320 319
328 330 331 331 330 330 329 329 330 330 330 330 330 330 330 328 326 328 330 331 332 332 328 329 328 328 329 329 330 330 329 329 327 326 325 325 323 321 318 319 323 322 322
328 330 331 330 329 329 329 329 330 330 331 330 330 330 330 328 325 326 328 330 332 332 328 328 328 328 329 328 328 328 327 327 327 325 324 324 324 323 321 325 322 322 323
327 329 330 329 329 329 329 329 330 331 332 332 331 331 331 326 326 326 328 330 332 332 332 331 330 330 330 329 329 327 327 326 326 326 325 325 328 328 326 324 323 326 326
326 329 329 329 330 330 331 332 332 331 331 331 332 332 331 327 326 326 328 329 331 331 331 332 331 331 329 328 329 328 327 326 326 326 326 325 327 328 327 323 327 326 325
325 328 330 329 329 330 330 330 332 332 331 330 332 332 330 328 327 327 329 329 331 331 330 329 329 329 329 328 330 330 329 327 326 326 327 328 328 327 321 322 325 326 327
324 327 329 330 330 331 331 330 330 329 329 331 332 331 329 326 327 329 328 329 330 330 329 328 326 327 327 327 330 330 329 329 328 326 326 328 328 325 324 328 327 328 328
323 325 327 329 329 331 332 330 329 328 331 331 331 332 330 329 326 327 327 330 330 330 330 329 327 327 326 322 324 328 327 328 328 327 327 327 325 325 326 328 329 328 327
323 324 325 327 329 330 331 331 329 328 327 330 331 331 331 331 327 326 327 327 329 330 330 330 327 327 326 322 318 324 326 327 328 328 328 328 328 327 326 325 323 319 317
324 324 324 325 329 330 329 329 327 327 324 324 328 330 330 331 329 328 326 327 327 328 328 328 326 327 328 326 321 317 321 323 327 327 323 321 321 321 320 319 317 315 312
324 325 324 324 325 330 328 329 327 327 325 323 324 326 329 330 330 329 329 328 328 328 327 325 326 327 327 326 326 323 323 322 322 323 323 322 321 321 320 318 317 315 313
325 325 324 322 324 325 329 329 328 327 326 325 322 323 323 323 326 328 328 328 328 327 327 327 326 326 326 325 324 323 322 321 322 323 323 321 320 320 319 318 317 317 318
326 326 324 322 322 322 324 329 329 326 326 324 324 322 321 322 322 321 323 323 323 321 323 324 323 322 323 323 323 322 321 321 322 323 322 321 320 320 317 318 318 319 317
326 325 325 323 322 322 323 323 324 326 327 326 321 321 321 322 319 322 322 321 321 321 321 321 320 320 320 319 318 318 319 320 321 322 322 322 322 320 318 318 318 317 315
326 325 324 324 322 321 322 323 323 323 323 323 323 323 321 321 320 319 319 321 323 322 322 321 322 321 321 320 320 319 317 318 319 321 321 321 321 320 318 317 317 315 311
326 325 324 324 323 322 322 322 322 323 323 324 324 325 325 322 322 319 317 319 321 320 320 321 321 321 321 321 320 320 319 319 319 319 321 321 320 320 319 317 316 311 307
329 327 324 324 324 323 321 322 322 322 323 323 324 325 325 324 325 325 323 322 324 323 322 321 320 319 318 317 318 319 319 319 319 318 318 319 319 319 319 317 316 308 305
329 329 325 325 325 324 323 322 322 323 323 323 323 323 324 324 323 324 324 324 322 321 322 322 321 320 319 318 316 316 316 317 318 318 318 318 318 318 317 317 314 307 303
329 328 327 325 326 326 325 324 323 323 323 323 323 323 322 324 323 323 324 325 324 323 321 321 321 321 320 319 318 317 316 315 314 316 317 317 317 316 315 314 310 306 300
329 329 328 326 326 327 326 326 325 324 324 323 322 322 323 324 324 323 323 325 325 324 323 321 321 321 321 320 320 320 320 319 318 316 315 316 316 315 314 311 308 304 299
329 329 329 328 327 326 327 327 327 327 326 325 325 324 324 325 325 324 324 324 325 325 324 323 322 321 321 322 322 321 321 320 319 319 317 316 315 314 311 309 304 300 298
328 329 329 328 328 327 327 328 328 328 328 328 327 327 327 326 326 325 325 325 325 325 325 324 323 322 322 322 322 322 321 320 318 316 315 315 313 312 309 306 302 297 295